Location: London
(42.9830°N, 81.2500°W)
Time: 19:15:23
(UTC-04:00)

Amateur Radio Satellites - All Passes

Search period start: 05 July 2015 18:45
Search period end: 06 July 2015 18:45
Location: London, 42.9830°N, 81.2500°W

Satellite Date Start Highest point End Downlink Frequencies (MHz)
Time Altitude Azimuth
CUSAT 1 05 Jul 18:46:53 18:48:15 13° 69° (ENE) 18:49:41 437.405
BRITE-PL 05 Jul 18:47:53 18:48:55 11° 61° (ENE) 18:50:14 437.365/2234.400
HO-68 05 Jul 18:50:21 18:51:53 11° 48° (NE) 18:53:50 435.675
Cosmos 2491 05 Jul 18:54:14 18:57:55 12° 309° (NW) 19:01:00 435.465 / 435.565
AIST 2 05 Jul 18:57:33 19:00:16 16° 249° (WSW) 19:02:48 435.215
CUBESAT XI-V 05 Jul 18:59:52 19:03:52 28° 94° (E) 19:07:53 437.345
O/OREOS (USA 219) 05 Jul 19:08:29 19:11:20 16° 259° (W) 19:14:00 437.305
GONETS M04 05 Jul 19:08:35 19:14:20 20° 59° (ENE) 19:20:28
SO-50 05 Jul 19:09:46 19:13:22 20° 323° (NW) 19:16:56 436.795
Cosmos 2504 05 Jul 19:19:30 19:25:29 25° 275° (W) 19:31:30 435.465 / 435.565
CUTE-I 05 Jul 19:26:58 19:32:07 46° 261° (W) 19:37:18 437.470
GOMX 1 05 Jul 19:51:41 19:55:40 25° 68° (ENE) 19:59:35 467.674
DANDE 05 Jul 19:58:50 20:01:38 71° 261° (W) 20:04:12 436.750
Cubesat XI-IV 05 Jul 20:02:49 20:07:04 23° 268° (W) 20:11:14 437.490
COMPASS 1 05 Jul 20:13:12 20:14:44 12° 63° (ENE) 20:16:29 437.405
PRISM 05 Jul 20:16:54 20:21:01 51° 100° (E) 20:25:05 437.425
BRITE-PL 05 Jul 20:21:22 20:26:48 75° 75° (ENE) 20:31:54 437.365/2234.400
Cosmos 2499 05 Jul 20:24:12 20:25:51 11° 54° (NE) 20:28:06 435.465 / 435.565
STRAND 1 05 Jul 20:24:48 20:29:56 65° 101° (ESE) 20:35:02 437.568
CUTE 1.7 + AOD 2 05 Jul 20:25:28 20:28:52 25° 68° (ENE) 20:32:21 437.475
CANX-2 05 Jul 20:28:46 20:32:24 29° 69° (ENE) 20:36:06 2200.000
DOVE 4 05 Jul 20:29:06 20:33:23 34° 71° (ENE) 20:37:31 437.250
CUSAT 1 05 Jul 20:29:33 20:30:45 12° 268° (W) 20:31:52 437.405
HO-68 05 Jul 20:31:21 20:38:11 52° 67° (ENE) 20:45:05 435.675
CUBESAT XI-V 05 Jul 20:37:09 20:41:20 31° 291° (WNW) 20:45:24 437.345
UWE-3 05 Jul 20:59:10 21:00:30 12° 63° (ENE) 21:02:01 435.000/436.395/437.385
GONETS M04 05 Jul 21:03:57 21:12:43 88° 82° (E) 21:21:25
CINEMA 3 05 Jul 21:05:14 21:09:16 35° 71° (ENE) 21:13:13 145.822/145.860
SEEDS 05 Jul 21:10:47 21:14:54 62° 75° (ENE) 21:19:04 437.485
AAUSAT CUBESAT 2 05 Jul 21:18:35 21:22:35 51° 73° (ENE) 21:26:39 437.432
M-CUBED/EXP-1 PRIME 05 Jul 21:19:32 21:22:20 17° 97° (E) 21:25:24 437.505
DELFI C3 05 Jul 21:26:02 21:28:54 20° 67° (ENE) 21:31:52 145.870
GOMX 1 05 Jul 21:28:49 21:33:40 40° 262° (W) 21:38:11 467.674
ZACube-1 05 Jul 21:41:21 21:44:43 25° 69° (ENE) 21:48:09 437.345
CUBEBUG 2 05 Jul 21:44:25 21:48:26 43° 73° (ENE) 21:52:26 437.445
COMPASS 1 05 Jul 21:45:48 21:49:55 66° 259° (W) 21:54:05 437.405
Oscar 11 05 Jul 21:46:12 21:50:19 47° 73° (ENE) 21:54:29 145.826/435.025
UKube-1 05 Jul 21:46:58 21:48:07 11° 61° (ENE) 21:49:29 .
HUMSAT D 05 Jul 21:50:22 21:52:21 14° 64° (ENE) 21:54:29 437.325/437.525
PRISM 05 Jul 21:53:31 21:56:05 15° 296° (WNW) 21:58:29 437.425
CUTE 1.7 + AOD 2 05 Jul 22:00:58 22:04:41 29° 265° (W) 22:08:23 437.475
BRITE-PL 05 Jul 22:02:49 22:05:49 14° 272° (W) 22:08:28 437.365/2234.400
CANX-2 05 Jul 22:04:51 22:08:20 24° 266° (W) 22:11:48 2200.000
STRAND 1 05 Jul 22:05:14 22:08:41 18° 298° (WNW) 22:11:56 437.568
DOVE 4 05 Jul 22:07:08 22:11:12 26° 266° (W) 22:15:01 437.250
AISAT 05 Jul 22:10:41 22:12:34 13° 62° (ENE) 22:14:37 437.250
Cosmos 2499 05 Jul 22:13:18 22:21:01 58° 77° (ENE) 22:29:20 435.465 / 435.565
FUNcube-1 05 Jul 22:16:03 22:20:09 57° 74° (ENE) 22:24:14 145.935
AUBIESAT-1 05 Jul 22:17:27 22:21:41 60° 106° (ESE) 22:26:12 437.475
HO-68 05 Jul 22:19:57 22:26:14 32° 266° (W) 22:32:25 435.675
UWE-3 05 Jul 22:32:20 22:36:34 70° 259° (WSW) 22:40:44 435.000/436.395/437.385
CINEMA 3 05 Jul 22:43:04 22:46:35 22° 267° (W) 22:49:55 145.822/145.860
ESTCUBE 1 05 Jul 22:46:28 22:49:35 19° 65° (ENE) 22:52:50 437.505/2401.250
SEEDS 05 Jul 22:49:39 22:51:12 11° 273° (W) 22:52:30 437.485
M-CUBED/EXP-1 PRIME 05 Jul 22:53:14 22:57:21 50° 292° (WNW) 23:01:43 437.505
AAUSAT CUBESAT 2 05 Jul 22:56:19 22:58:34 14° 271° (W) 23:00:37 437.432
50 SAT 05 Jul 22:56:43 23:00:11 34° 71° (ENE) 23:03:42 437.505
VELOX 1 05 Jul 22:57:02 23:01:04 35° 70° (ENE) 23:05:08 145.980
DELFI C3 05 Jul 23:00:05 23:03:46 35° 263° (W) 23:07:28 145.870
DX 1 05 Jul 23:00:36 23:04:57 69° 74° (ENE) 23:09:20 434.975-435.025
UNISAT 6 05 Jul 23:01:47 23:04:36 17° 91° (E) 23:07:37 437.425
GONETS M04 05 Jul 23:02:43 23:08:31 19° 281° (W) 23:13:51
ZACube-1 05 Jul 23:17:20 23:21:01 28° 265° (W) 23:24:38 437.345
UKube-1 05 Jul 23:19:19 23:23:40 81° 258° (WSW) 23:28:02 .
SPROUT 05 Jul 23:21:49 23:22:27 10° 62° (ENE) 23:23:18 437.525
CUBEBUG 2 05 Jul 23:22:34 23:25:24 17° 269° (W) 23:28:03 437.445
HUMSAT D 05 Jul 23:23:40 23:27:41 55° 260° (W) 23:31:43 437.325/437.525
Oscar 11 05 Jul 23:24:07 23:26:49 16° 270° (W) 23:29:23 145.826/435.025
QB50P1 05 Jul 23:31:29 23:33:31 14° 89° (E) 23:35:45 145.935-145.965
AISAT 05 Jul 23:44:08 23:48:37 73° 259° (W) 23:53:05 437.250
NANOSAT C BR1 05 Jul 23:44:24 23:47:20 19° 92° (E) 23:50:22 145.865
ANTELSAT 05 Jul 23:45:17 23:49:33 48° 99° (E) 23:53:55 437.575/2403.000
DUCHIFAT 1 05 Jul 23:50:37 23:53:49 21° 93° (E) 23:57:04 145.980
AUBIESAT-1 05 Jul 23:53:26 23:56:06 16° 300° (WNW) 23:58:41 437.475
FUNcube-1 05 Jul 23:55:04 23:56:55 12° 271° (W) 23:58:33 145.935
TISAT 1 05 Jul 23:55:35 23:58:06 16° 65° (ENE) 00:00:46 437.305
TIGRISAT 05 Jul 23:56:55 00:01:16 63° 101° (E) 00:05:43 435.000
CUBEBUG 1 05 Jul 23:57:18 00:01:45 83° 76° (ENE) 00:06:12 437.445
POLYITAN 1 05 Jul 23:57:21 00:00:54 26° 95° (E) 00:04:31 437.675
BUGSAT 1 06 Jul 00:01:24 00:04:07 18° 92° (E) 00:06:55 437.445
Cosmos 2499 06 Jul 00:07:07 00:13:51 31° 274° (W) 00:20:46 435.465 / 435.565
SO-50 06 Jul 00:18:41 00:21:54 17° 35° (NE) 00:25:11 436.795
ESTCUBE 1 06 Jul 00:21:45 00:26:08 47° 261° (W) 00:30:33 437.505/2401.250
QB50P2 06 Jul 00:26:24 00:30:34 57° 100° (E) 00:34:42 145.880/145.840
POPSAT HIP 1 06 Jul 00:26:45 00:30:53 55° 100° (E) 00:35:01 437.405
50 SAT 06 Jul 00:32:19 00:34:57 17° 268° (W) 00:37:29 437.505
VELOX 1 06 Jul 00:34:04 00:37:43 23° 267° (W) 00:41:15 145.980
PCSat 06 Jul 00:36:52 00:41:58 41° 51° (NE) 00:47:05 145.827
UNISAT 6 06 Jul 00:37:27 00:41:40 46° 288° (WNW) 00:45:57 437.425
DX 1 06 Jul 00:40:13 00:41:46 11° 272° (W) 00:43:02 434.975-435.025
SPROUT 06 Jul 00:53:37 00:57:56 84° 256° (WSW) 01:02:17 437.525
BEESAT 06 Jul 01:02:27 01:05:18 16° 63° (ENE) 01:08:21 436.000
Cosmos 2491 06 Jul 01:04:13 01:08:55 16° 55° (NE) 01:14:05 435.465 / 435.565
QB50P1 06 Jul 01:05:40 01:09:47 53° 287° (WNW) 01:13:51 145.935-145.965
SWISSCUBE 06 Jul 01:17:13 01:20:59 24° 66° (ENE) 01:24:53 437.505
NANOSAT C BR1 06 Jul 01:19:25 01:23:20 38° 289° (WNW) 01:27:13 145.865
ANTELSAT 06 Jul 01:23:04 01:26:03 18° 294° (WNW) 01:28:55 437.575/2403.000
ITUPSAT 1 06 Jul 01:23:14 01:27:04 25° 66° (ENE) 01:31:00 437.325
DUCHIFAT 1 06 Jul 01:25:55 01:29:43 33° 290° (WNW) 01:33:28 145.980
TISAT 1 06 Jul 01:29:23 01:33:31 50° 261° (W) 01:37:39 437.305
POLYITAN 1 06 Jul 01:33:11 01:36:46 27° 291° (WNW) 01:40:18 437.675
TIGRISAT 06 Jul 01:35:14 01:37:36 14° 296° (WNW) 01:39:48 435.000
BUGSAT 1 06 Jul 01:36:00 01:39:46 37° 289° (WNW) 01:43:28 437.445
SO-50 06 Jul 01:58:15 02:03:15 84° 54° (NE) 02:08:08 436.795
QB50P2 06 Jul 02:03:44 02:06:03 14° 296° (WNW) 02:08:11 145.880/145.840
POPSAT HIP 1 06 Jul 02:04:00 02:06:21 14° 296° (WNW) 02:08:33 437.405
RS-15 06 Jul 02:10:24 02:20:22 45° 111° (ESE) 02:30:46 29.354- 29.394
PCSat 06 Jul 02:20:31 02:25:18 31° 249° (WSW) 02:29:59 145.827
BEESAT 06 Jul 02:37:58 02:42:42 62° 259° (W) 02:47:28 436.000
STARS 06 Jul 02:39:47 02:42:22 16° 64° (ENE) 02:45:07 437.465
SWISSCUBE 06 Jul 02:54:10 02:58:40 39° 262° (W) 03:03:10 437.505
Cosmos 2491 06 Jul 02:58:59 03:07:46 74° 79° (E) 03:16:28 435.465 / 435.565
Oscar 19 06 Jul 03:00:09 03:05:18 79° 102° (ESE) 03:10:27 437.125/150
ITUPSAT 1 06 Jul 03:00:18 03:04:47 38° 263° (W) 03:09:16 437.325
ITAMSAT 1 06 Jul 03:15:38 03:20:12 31° 95° (E) 03:24:49 435.822/435.867
Gurwin Techsat 1B 06 Jul 03:18:47 03:23:38 35° 96° (E) 03:28:31 435.225
KKS-1 06 Jul 03:26:02 03:30:29 76° 75° (ENE) 03:34:56 437.445
AIST 1 06 Jul 03:26:33 03:30:57 89° 263° (W) 03:35:15
YUBILEINY 06 Jul 03:33:12 03:41:25 51° 90° (E) 03:49:46 435.215
JAS-2 06 Jul 03:34:21 03:39:02 20° 89° (E) 03:44:18 435.910
SO-50 06 Jul 03:40:54 03:43:10 13° 252° (WSW) 03:45:10 436.795
AO-7 06 Jul 03:50:12 03:54:22 15° 85° (E) 03:59:06 29.400- 29.500
MOZHAYETS 4 06 Jul 03:56:50 03:59:49 18° 65° (ENE) 04:02:57
STARS 06 Jul 04:14:07 04:18:26 54° 259° (W) 04:22:46 437.465
HORYU 2 06 Jul 04:18:41 04:21:36 17° 91° (E) 04:24:39 437.375
RS-15 06 Jul 04:21:48 04:32:34 58° 314° (NW) 04:43:42 29.354- 29.394
Oscar 19 06 Jul 04:41:14 04:44:05 15° 300° (WNW) 04:46:44 437.125/150
ITAMSAT 1 06 Jul 04:55:01 04:59:45 35° 292° (WNW) 05:04:23 435.822/435.867
Cosmos 2491 06 Jul 04:57:09 05:03:51 24° 279° (W) 05:10:11 435.465 / 435.565
Gurwin Techsat 1B 06 Jul 04:58:53 05:03:34 31° 293° (WNW) 05:08:10 435.225
KKS-1 06 Jul 05:06:40 05:07:44 11° 273° (W) 05:08:31 437.445
JAS-2 06 Jul 05:18:00 05:24:41 79° 286° (WNW) 05:32:08 435.910
YUBILEINY 06 Jul 05:30:40 05:38:35 37° 291° (WNW) 05:46:25 435.215
MOZHAYETS 4 06 Jul 05:32:13 05:36:41 51° 261° (W) 05:41:12
AO-7 06 Jul 05:40:18 05:48:44 78° 107° (ESE) 05:57:05 29.400- 29.500
HORYU 2 06 Jul 05:54:14 05:58:31 47° 289° (WNW) 06:02:48 437.375
Cosmos 2504 06 Jul 05:58:38 06:05:06 45° 90° (E) 06:11:39 435.465 / 435.565
CUBESAT XI-V 06 Jul 06:04:03 06:08:09 31° 69° (ENE) 06:12:19 437.345
STRAND 1 06 Jul 06:05:28 06:08:04 14° 60° (ENE) 06:10:53 437.568
Cubesat XI-IV 06 Jul 06:38:56 06:42:24 18° 89° (E) 06:46:03 437.490
RS-15 06 Jul 06:39:08 06:48:10 26° 346° (NNW) 06:57:24 29.354- 29.394
JAS-2 06 Jul 07:05:05 07:09:04 16° 301° (WNW) 07:12:56 435.910
PRISM 06 Jul 07:07:38 07:11:34 42° 71° (ENE) 07:15:34 437.425
BEESAT 3 06 Jul 07:09:20 07:12:58 33° 116° (ESE) 07:16:42 437.485
BEESAT 2 06 Jul 07:23:59 07:27:46 37° 117° (ESE) 07:31:37 435.950
DANDE 06 Jul 07:27:21 07:31:37 19° 92° (E) 07:35:32 436.750
AO-7 06 Jul 07:34:04 07:40:49 27° 306° (NW) 07:47:20 29.400- 29.500
ISS 06 Jul 07:37:49 07:40:20 21° 135° (SE) 07:42:53 145.825
O/OREOS (USA 219) 06 Jul 07:40:58 07:45:16 51° 109° (ESE) 07:49:37 437.305
CUBESAT XI-V 06 Jul 07:41:27 07:45:34 29° 266° (W) 07:49:40 437.345
STRAND 1 06 Jul 07:41:31 07:46:40 82° 258° (WSW) 07:51:52 437.568
CUTE-I 06 Jul 07:42:51 07:48:12 66° 102° (ESE) 07:53:31 437.470
Cosmos 2504 06 Jul 07:51:26 07:57:32 31° 290° (WNW) 08:03:33 435.465 / 435.565
CUSAT 1 06 Jul 07:51:52 07:57:28 36° 97° (E) 08:01:55 437.405
VERMONT LUNAR 06 Jul 07:53:10 07:55:50 26° 161° (SSE) 07:58:32 437.305
M-CUBED/EXP-1 PRIME 06 Jul 08:09:21 08:11:47 19° 62° (ENE) 08:14:23 437.505
GONETS M04 06 Jul 08:12:35 08:18:20 21° 80° (E) 08:24:30
Cubesat XI-IV 06 Jul 08:17:42 08:23:01 62° 288° (WNW) 08:28:17 437.490
BRITE-PL 06 Jul 08:26:49 08:29:43 18° 90° (E) 08:32:41 437.365/2234.400
PHONESAT 2.4 06 Jul 08:38:08 08:40:19 16° 152° (SSE) 08:42:33 2401.200-2431.200
PRISM 06 Jul 08:44:25 08:47:15 17° 269° (W) 08:49:57 437.425
BEESAT 3 06 Jul 08:47:26 08:50:58 27° 314° (NW) 08:54:29 437.485
AIST 2 06 Jul 08:54:27 08:58:42 83° 122° (ESE) 09:03:00 435.215
RS-15 06 Jul 08:56:02 09:05:28 29° 20° (NNE) 09:15:25 29.354- 29.394
BEESAT 2 06 Jul 09:02:28 09:05:56 25° 315° (NW) 09:09:23 435.950
AUBIESAT-1 06 Jul 09:06:48 09:10:07 88° 80° (E) 09:13:39 437.475
DANDE 06 Jul 09:07:41 09:14:43 69° 281° (W) 09:19:59 436.750
ISS 06 Jul 09:13:21 09:16:32 51° 332° (NNW) 09:19:43 145.825
O/OREOS (USA 219) 06 Jul 09:21:51 09:25:02 18° 308° (NW) 09:28:08 437.305
CUTE-I 06 Jul 09:24:08 09:27:49 18° 298° (WNW) 09:31:17 437.470
COMPASS 1 06 Jul 09:29:04 09:31:59 19° 91° (E) 09:35:03 437.405
VERMONT LUNAR 06 Jul 09:29:25 09:32:27 53° 177° (S) 09:35:32 437.305
GOMX 1 06 Jul 09:29:43 09:33:49 52° 99° (E) 09:37:52 467.674
CUSAT 1 06 Jul 09:34:53 09:40:03 28° 285° (WNW) 09:44:06 437.405
M-CUBED/EXP-1 PRIME 06 Jul 09:43:44 09:46:32 24° 260° (W) 09:49:24 437.505
CUTE 1.7 + AOD 2 06 Jul 09:44:36 09:48:42 42° 98° (E) 09:52:47 437.475
HO-68 06 Jul 09:45:18 09:52:11 49° 99° (E) 09:59:07 435.675
CANX-2 06 Jul 09:48:12 09:52:24 51° 99° (E) 09:56:36 2200.000
UNISAT 6 06 Jul 10:02:19 10:05:01 17° 65° (ENE) 10:07:52 437.425
DOVE 4 06 Jul 10:04:18 10:08:28 78° 104° (ESE) 10:12:38 437.250
BRITE-PL 06 Jul 10:04:33 10:08:33 37° 289° (WNW) 10:12:21 437.365/2234.400
GONETS M04 06 Jul 10:05:26 10:14:14 84° 278° (W) 10:23:03
PHONESAT 2.4 06 Jul 10:14:35 10:17:53 44° 167° (SSE) 10:21:10 2401.200-2431.200
UWE-3 06 Jul 10:21:41 10:24:50 21° 93° (E) 10:28:08 435.000/436.395/437.385
QB50P1 06 Jul 10:25:50 10:27:41 13° 63° (ENE) 10:29:41 145.935-145.965
SEEDS 06 Jul 10:29:39 10:33:56 75° 284° (WNW) 10:38:11 437.485
AIST 2 06 Jul 10:35:14 10:37:52 15° 322° (NW) 10:40:25 435.215
CINEMA 3 06 Jul 10:35:29 10:39:40 78° 102° (ESE) 10:43:57 145.822/145.860
AAUSAT CUBESAT 2 06 Jul 10:35:46 10:40:01 87° 102° (ESE) 10:44:14 437.432
DELFI C3 06 Jul 10:38:08 10:41:37 27° 95° (E) 10:45:09 145.870
NANOSAT C BR1 06 Jul 10:38:18 10:40:59 17° 66° (ENE) 10:43:48 145.865
DUCHIFAT 1 06 Jul 10:44:14 10:47:11 19° 66° (ENE) 10:50:15 145.980
ANTELSAT 06 Jul 10:45:19 10:49:24 47° 72° (ENE) 10:53:31 437.575/2403.000
DX 1 06 Jul 10:50:41 10:51:38 11° 88° (E) 10:52:51 434.975-435.025
ISS 06 Jul 10:51:02 10:53:28 19° 351° (N) 10:55:53 145.825
POLYITAN 1 06 Jul 10:51:28 10:54:49 24° 68° (ENE) 10:58:14 437.675
Cosmos 2499 06 Jul 10:52:03 10:58:31 42° 89° (E) 11:05:10 435.465 / 435.565
BUGSAT 1 06 Jul 10:52:46 10:55:18 16° 65° (ENE) 10:57:58 437.445
TIGRISAT 06 Jul 10:56:38 11:00:49 60° 74° (ENE) 11:05:02 435.000
COMPASS 1 06 Jul 11:03:53 11:07:51 39° 288° (WNW) 11:11:47 437.405
ZACube-1 06 Jul 11:04:04 11:08:09 46° 98° (E) 11:12:19 437.345
VERMONT LUNAR 06 Jul 11:06:13 11:09:09 38° 193° (SSW) 11:12:06 437.305
HUMSAT D 06 Jul 11:07:08 11:10:18 21° 93° (E) 11:13:34 437.325/437.525
UKube-1 06 Jul 11:07:11 11:09:42 16° 90° (E) 11:12:23 .
Oscar 11 06 Jul 11:08:21 11:12:44 88° 101° (E) 11:17:05 145.826/435.025
RS-15 06 Jul 11:09:09 11:20:45 66° 49° (NE) 11:32:51 29.354- 29.394
GOMX 1 06 Jul 11:09:17 11:11:36 14° 296° (WNW) 11:13:44 467.674
CUBEBUG 2 06 Jul 11:10:29 11:14:43 89° 101° (E) 11:19:03 437.445
QB50P2 06 Jul 11:20:00 11:24:05 48° 73° (ENE) 11:28:11 145.880/145.840
POPSAT HIP 1 06 Jul 11:20:13 11:24:17 46° 72° (ENE) 11:28:21 437.405
CUTE 1.7 + AOD 2 06 Jul 11:21:16 11:24:20 19° 294° (WNW) 11:27:16 437.475
CANX-2 06 Jul 11:25:17 11:27:57 16° 295° (WNW) 11:30:28 2200.000
HO-68 06 Jul 11:33:23 11:39:45 35° 298° (WNW) 11:46:00 435.675
AISAT 06 Jul 11:34:45 11:37:55 20° 92° (E) 11:41:11 437.250
UNISAT 6 06 Jul 11:37:23 11:41:31 46° 261° (W) 11:45:38 437.425
FUNcube-1 06 Jul 11:39:15 11:43:29 74° 283° (WNW) 11:47:47 145.935
CUBEBUG 1 06 Jul 11:46:53 11:49:06 14° 89° (E) 11:51:31 437.445
PHONESAT 2.4 06 Jul 11:52:19 11:55:41 55° 185° (S) 11:59:05 2401.200-2431.200
UWE-3 06 Jul 11:57:37 12:01:30 35° 289° (WNW) 12:05:25 435.000/436.395/437.385
QB50P1 06 Jul 11:58:51 12:03:04 64° 258° (WSW) 12:07:17 145.935-145.965
50 SAT 06 Jul 12:05:29 12:09:16 46° 99° (E) 12:13:05 437.505
GONETS M04 06 Jul 12:06:46 12:12:44 19° 302° (WNW) 12:18:16
NANOSAT C BR1 06 Jul 12:12:26 12:16:31 45° 261° (W) 12:20:35 145.865
DELFI C3 06 Jul 12:13:15 12:16:38 25° 291° (WNW) 12:19:56 145.870
ESTCUBE 1 06 Jul 12:13:35 12:17:41 33° 96° (E) 12:21:47 437.505/2401.250
CINEMA 3 06 Jul 12:15:35 12:16:23 10° 297° (WNW) 12:16:58 145.822/145.860
DUCHIFAT 1 06 Jul 12:18:45 12:22:45 39° 262° (W) 12:26:44 145.980
VELOX 1 06 Jul 12:22:31 12:26:55 61° 101° (E) 12:31:16 145.980
ANTELSAT 06 Jul 12:23:51 12:26:31 16° 270° (W) 12:29:01 437.575/2403.000
DX 1 06 Jul 12:24:07 12:28:29 71° 285° (WNW) 12:32:46 434.975-435.025
BUGSAT 1 06 Jul 12:26:20 12:30:26 49° 261° (W) 12:34:31 437.445
POLYITAN 1 06 Jul 12:26:48 12:30:36 31° 264° (W) 12:34:22 437.675
ISS 06 Jul 12:28:10 12:30:41 20° 11° (NNE) 12:33:12 145.825
TIGRISAT 06 Jul 12:36:16 12:38:04 12° 272° (W) 12:39:39 435.000
SPROUT 06 Jul 12:40:39 12:43:10 16° 90° (E) 12:45:52 437.525
Oscar 19 06 Jul 12:41:02 12:44:12 17° 62° (ENE) 12:47:32 437.125/150
ZACube-1 06 Jul 12:41:24 12:44:14 17° 294° (WNW) 12:46:57 437.345
UKube-1 06 Jul 12:41:59 12:46:11 49° 288° (WNW) 12:50:20 .
HUMSAT D 06 Jul 12:42:21 12:46:08 33° 289° (WNW) 12:49:54 437.325/437.525
VERMONT LUNAR 06 Jul 12:44:00 12:45:36 13° 208° (SSW) 12:47:08 437.305
Cosmos 2499 06 Jul 12:45:24 12:51:47 35° 290° (WNW) 12:58:14 435.465 / 435.565
Oscar 11 06 Jul 12:47:44 12:48:18 10° 299° (WNW) 12:48:38 145.826/435.025
QB50P2 06 Jul 12:57:41 13:00:17 15° 270° (W) 13:02:44 145.880/145.840
POPSAT HIP 1 06 Jul 12:57:46 13:00:26 16° 269° (W) 13:02:57 437.405
AISAT 06 Jul 13:10:33 13:14:42 40° 289° (WNW) 13:18:47 437.250
TISAT 1 06 Jul 13:13:23 13:16:40 23° 93° (E) 13:20:02 437.305
CUBEBUG 1 06 Jul 13:21:36 13:25:53 54° 287° (WNW) 13:30:06 437.445
RS-15 06 Jul 13:22:08 13:32:51 41° 251° (WSW) 13:43:38 29.354- 29.394
PHONESAT 2.4 06 Jul 13:30:24 13:33:24 27° 201° (SSW) 13:36:23 2401.200-2431.200
50 SAT 06 Jul 13:41:18 13:43:33 15° 295° (WNW) 13:45:40 437.505
YUBILEINY 06 Jul 13:42:19 13:49:18 27° 64° (ENE) 13:56:34 435.215
ESTCUBE 1 06 Jul 13:50:39 13:54:26 26° 293° (WNW) 13:58:07 437.505/2401.250
VELOX 1 06 Jul 14:00:31 14:03:01 15° 297° (WNW) 14:05:19 145.980
ISS 06 Jul 14:04:18 14:07:31 66° 30° (NNE) 14:10:45 145.825
Cosmos 2491 06 Jul 14:09:06 14:13:44 16° 77° (ENE) 14:18:56 435.465 / 435.565
SPROUT 06 Jul 14:15:27 14:19:34 47° 288° (WNW) 14:23:40 437.525
Oscar 19 06 Jul 14:17:58 14:23:05 66° 258° (WSW) 14:28:12 437.125/150
ITAMSAT 1 06 Jul 14:34:17 14:39:19 52° 71° (ENE) 14:44:25 435.822/435.867
BEESAT 06 Jul 14:37:31 14:41:46 31° 96° (E) 14:46:02 436.000
Gurwin Techsat 1B 06 Jul 14:40:38 14:45:51 61° 73° (ENE) 14:51:07 435.225
TISAT 1 06 Jul 14:48:46 14:52:30 31° 290° (WNW) 14:56:10 437.305
AO-7 06 Jul 14:49:42 14:56:14 28° 55° (NE) 15:03:00 29.400- 29.500
SWISSCUBE 06 Jul 14:53:12 14:57:52 48° 99° (E) 15:02:31 437.505
ITUPSAT 1 06 Jul 14:59:35 15:04:16 50° 99° (E) 15:08:57 437.325
KKS-1 06 Jul 15:17:56 15:20:00 13° 89° (E) 15:22:18 437.445
HORYU 2 06 Jul 15:18:07 15:21:09 19° 65° (ENE) 15:24:18 437.375
PCSat 06 Jul 15:19:58 15:24:32 29° 110° (ESE) 15:29:12 145.827
BEESAT 3 06 Jul 15:26:51 15:30:26 29° 46° (NE) 15:33:59 437.485
JAS-2 06 Jul 15:32:25 15:37:20 47° 70° (ENE) 15:42:36 435.910
YUBILEINY 06 Jul 15:38:21 15:47:05 72° 266° (W) 15:55:47 435.215
AIST 2 06 Jul 15:38:37 15:40:13 12° 34° (NNE) 15:41:57 435.215
ISS 06 Jul 15:41:31 15:43:37 16° 227° (SW) 15:45:38 145.825
BEESAT 2 06 Jul 15:42:08 15:45:51 32° 48° (NE) 15:49:32 435.950
Cosmos 2504 06 Jul 15:43:44 15:47:48 16° 60° (ENE) 15:52:27 435.465 / 435.565
AIST 1 06 Jul 15:56:36 16:00:51 51° 94° (E) 16:05:10
Cosmos 2491 06 Jul 16:00:34 16:09:23 82° 96° (E) 16:18:14 435.465 / 435.565
STARS 06 Jul 16:03:16 16:06:50 25° 94° (E) 16:10:29 437.465
O/OREOS (USA 219) 06 Jul 16:11:53 16:14:22 15° 50° (NE) 16:17:00 437.305
SO-50 06 Jul 16:14:21 16:17:56 22° 112° (ESE) 16:21:44 436.795
ITAMSAT 1 06 Jul 16:15:15 16:19:11 21° 269° (W) 16:22:59 435.822/435.867
BEESAT 06 Jul 16:15:23 16:19:34 30° 292° (WNW) 16:23:41 436.000
Gurwin Techsat 1B 06 Jul 16:22:42 16:26:20 18° 271° (W) 16:29:46 435.225
SWISSCUBE 06 Jul 16:31:51 16:35:25 20° 296° (WNW) 16:38:50 437.505
ITUPSAT 1 06 Jul 16:38:19 16:41:50 20° 296° (WNW) 16:45:12 437.325
AO-7 06 Jul 16:39:59 16:48:20 77° 254° (WSW) 16:56:46 29.400- 29.500
KKS-1 06 Jul 16:52:43 16:57:06 59° 287° (WNW) 17:01:27 437.445
HORYU 2 06 Jul 16:53:16 16:57:29 44° 261° (W) 17:01:44 437.375
PCSat 06 Jul 17:02:38 17:07:48 43° 308° (NW) 17:12:59 145.827
BEESAT 3 06 Jul 17:04:48 17:08:22 29° 244° (WSW) 17:11:49 437.485
AIST 2 06 Jul 17:15:25 17:19:38 70° 55° (NE) 17:23:46 435.215
JAS-2 06 Jul 17:18:55 17:22:55 21° 270° (W) 17:26:55 435.910
BEESAT 2 06 Jul 17:20:23 17:23:49 26° 245° (WSW) 17:27:09 435.950
MOZHAYETS 4 06 Jul 17:26:26 17:30:41 34° 96° (E) 17:34:56
CUTE-I 06 Jul 17:28:09 17:31:28 17° 61° (ENE) 17:34:59 437.470
Cosmos 2504 06 Jul 17:33:47 17:41:20 80° 81° (E) 17:49:29 435.465 / 435.565
AIST 1 06 Jul 17:36:14 17:38:55 15° 293° (WNW) 17:41:26
YUBILEINY 06 Jul 17:38:28 17:42:29 13° 285° (WNW) 17:45:52 435.215
STARS 06 Jul 17:39:26 17:43:19 31° 291° (WNW) 17:47:10 437.465
O/OREOS (USA 219) 06 Jul 17:49:51 17:54:22 71° 249° (WSW) 17:58:53 437.305
SO-50 06 Jul 17:53:33 17:58:11 49° 310° (NW) 18:02:58 436.795
Cosmos 2491 06 Jul 18:00:40 18:07:29 23° 299° (WNW) 18:14:00 435.465 / 435.565
Cubesat XI-IV 06 Jul 18:01:25 18:06:07 33° 67° (ENE) 18:10:55 437.490
